User: anonymous   Login
Location: Fort Frances
(48.6170°N, 93.4170°W)
Time: 07:47:55
(UTC-06:00)
Language:

Iridium 53 - Orbit

View from above orbital plane
View from above orbital plane
View from above satellite
View from above satellite

Ground track
Ground track

The orbit data is extracted from the following two-line orbital elements,

1 25173U 98010E   14327.52228008  .00000436  00000-0  14851-3 0   457
2 25173 086.3975 021.8720 0002220 108.4313 026.0166 14.34218044877514
Epoch (UTC): 23 November 2014 12:32:04
Eccentricity: 0.0002220
inclination: 86.3975°
perigee height: 776 km
apogee height: 779 km
right ascension of ascending node: 21.8720°
argument of perigee: 108.4313°
revolutions per day: 14.34218044
mean anomaly at epoch: 26.0166°
orbit number at epoch: 87751

The dashed part of the orbit path shows where the satellite is in the earth's shadow,  

DLR